Location: Unspecified
(0.0000°N, 0.0000°E)
Time: 05:02:25
(UTC+01:00)

Iridium 76 - Visible Passes

Search period start: 27 February 2015 00:00
Search period end: 09 March 2015 00:00
Orbit: 776 x 779 km, 86.4° (Epoch: 26 February)

Date Brightness Start Highest point End Pass type
(mag) Time Alt. Az. Time Alt. Az. Time Alt. Az.
27 Feb 8.3 06:05:25 10° SE 06:09:06 20° E 06:13:00 10° NE visible
28 Feb 8.6 19:46:14 10° NW 19:49:44 17° W 19:52:58 10° SW visible
01 Mar 5.8 06:37:31 10° S 06:42:44 75° E 06:47:55 10° N visible
02 Mar 7.4 06:04:38 10° SSE 06:09:14 33° E 06:13:54 10° NNE visible
03 Mar 8.6 05:32:58 10° ESE 05:35:38 15° E 05:38:40 10° NE visible
03 Mar 9.3 19:49:12 10° W 19:49:55 10° W 19:50:08 10° W visible
04 Mar 5.5 06:37:36 10° S 06:42:48 68° W 06:47:57 10° N visible
05 Mar 6.4 06:04:15 10° SSE 06:09:19 54° E 06:14:24 10° NNE visible
06 Mar 7.8 05:31:43 10° SE 05:35:47 24° E 05:40:00 10° NE visible
07 Mar 8.8 05:01:40 10° E 05:02:10 10° E 05:03:11 10° E visible
07 Mar 5.9 06:37:57 10° SSW 06:42:52 41° W 06:47:43 10° NNW visible
08 Mar 5.5 06:04:10 10° S 06:09:23 88° E 06:14:36 10° N visible
